FW3936 Weather Reports


Display with metric or nautical units.
time (UTC)temp
F
wind
direction
speed
MPH
gust
MPH
rain 1hr
in
rain 24hr
in
rain mn
in
humidity
%
barometer
mb
20190319214044 64 103 2.0 8.0 0.00 0.00 0.00 49 1022.3
20190319213543 64 175 2.0 10.0 0.00 0.00 0.00 50 1022.3
20190319213204 64 128 4.0 10.0 0.00 0.00 0.00 50 1022.4
20190319212542 65 156 2.0 5.0 0.00 0.00 0.00 49 1022.3
20190319212042 65 165 1.0 8.0 0.00 0.00 0.00 49 1022.4
20190319211656 65 122 2.0 8.0 0.00 0.00 0.00 47 1022.4
20190319211045 65 119 3.0 8.0 0.00 0.00 0.00 49 1022.4
20190319210544 65 161 2.0 5.0 0.00 0.00 0.00 48 1022.4
20190319210107 65 160 2.0 6.0 0.00 0.00 0.00 47 1022.5
20190319205539 65 146 2.0 8.0 0.00 0.00 0.00 48 1022.5
20190319205039 65 163 3.0 7.0 0.00 0.00 0.00 48 1022.5
20190319204610 65 160 1.0 12.0 0.00 0.00 0.00 49 1022.4
20190319204038 65 167 4.0 12.0 0.00 0.00 0.00 48 1022.5
20190319203539 65 116 3.0 9.0 0.00 0.00 0.00 48 1022.6
20190319203057 65 144 3.0 9.0 0.00 0.00 0.00 48 1022.7
20190319202538 65 169 3.0 8.0 0.00 0.00 0.00 47 1022.7
20190319202040 65 169 3.0 6.0 0.00 0.00 0.00 46 1022.8
20190319201656 66 173 4.0 7.0 0.00 0.00 0.00 45 1022.9
20190319201033 66 169 3.0 8.0 0.00 0.00 0.00 44 1022.9
20190319200533 66 164 4.0 8.0 0.00 0.00 0.00 44 1022.9
20190319200118 67 167 3.0 9.0 0.00 0.00 0.00 44 1023.0
20190319195539 67 158 2.0 9.0 0.00 0.00 0.00 43 1023.0
20190319195031 67 183 2.0 9.0 0.00 0.00 0.00 43 1023.0
20190319194553 68 157 3.0 10.0 0.00 0.00 0.00 43 1023.1
20190319194032 68 153 3.0 10.0 0.00 0.00 0.00 44 1023.2
20190319193535 68 89 3.0 9.0 0.00 0.00 0.00 41 1023.2
20190319193112 69 149 2.0 10.0 0.00 0.00 0.00 43 1023.3
20190319192532 67 97 4.0 10.0 0.00 0.00 0.00 45 1023.4
20190319192029 67 74 3.0 11.0 0.00 0.00 0.00 43 1023.5
20190319191608 68 108 3.0 11.0 0.00 0.00 0.00 43 1023.5
20190319191024 67 148 1.0 11.0 0.00 0.00 0.00 43 1023.6
20190319190523 68 110 3.0 10.0 0.00 0.00 0.00 41 1023.7
20190319190043 68 121 3.0 9.0 0.00 0.00 0.00 41 1023.9
20190319185521 68 167 2.0 6.0 0.00 0.00 0.00 41 1024.0
20190319185019 67 162 2.0 7.0 0.00 0.00 0.00 43 1024.0
20190319184526 67 157 2.0 10.0 0.00 0.00 0.00 40 1024.2
20190319184022 67 153 3.0 10.0 0.00 0.00 0.00 41 1024.4
20190319183521 66 167 4.0 8.0 0.00 0.00 0.00 42 1024.6
20190319183045 65 66 2.0 8.0 0.00 0.00 0.00 43 1024.6
20190319182515 65 92 1.0 7.0 0.00 0.00 0.00 42 1024.7
20190319182018 65 144 3.0 13.0 0.00 0.00 0.00 42 1024.8
20190319181534 65 106 5.0 13.0 0.00 0.00 0.00 41 1024.8
20190319181015 65 83 2.0 9.0 0.00 0.00 0.00 41 1024.9
20190319180517 65 113 2.0 10.0 0.00 0.00 0.00 41 1025.0
20190319180058 66 123 4.0 11.0 0.00 0.00 0.00 40 1025.1
20190319175515 66 115 2.0 11.0 0.00 0.00 0.00 41 1025.1
20190319175013 65 145 3.0 7.0 0.00 0.00 0.00 43 1025.2
20190319174523 65 89 2.0 8.0 0.00 0.00 0.00 42 1025.3
20190319174012 65 98 2.0 8.0 0.00 0.00 0.00 43 1025.4
20190319173516 66 113 2.0 11.0 0.00 0.00 0.00 42 1025.3
20190319173044 66 117 4.0 11.0 0.00 0.00 0.00 43 1025.3
20190319172510 65 145 3.0 12.0 0.00 0.00 0.00 40 1025.4
20190319172010 65 136 2.0 12.0 0.00 0.00 0.00 40 1025.5
20190319171520 65 109 3.0 7.0 0.00 0.00 0.00 37 1025.6
20190319171007 65 170 2.0 7.0 0.00 0.00 0.00 42 1025.5
20190319170506 64 162 3.0 7.0 0.00 0.00 0.00 42 1025.6
20190319170012 64 101 3.0 10.0 0.00 0.00 0.00 47 1025.6
20190319165508 64 103 3.0 10.0 0.00 0.00 0.00 45 1025.8
20190319165002 64 159 2.0 7.0 0.00 0.00 0.00 47 1025.7
20190319164816 63 115 3.0 7.0 0.00 0.00 0.00 46 1025.8
20190319164103 63 158 2.0 12.0 0.00 0.00 0.00 48 1025.7
20190319163559 63 179 3.0 12.0 0.00 0.00 0.00 48 1025.8
20190319163152 63 150 2.0 8.0 0.00 0.00 0.00 47 1025.8
20190319162555 63 97 4.0 10.0 0.00 0.00 0.00 49 1025.9
20190319162056 62 160 3.0 9.0 0.00 0.00 0.00 50 1025.8
20190319161642 62 157 3.0 13.0 0.00 0.00 0.00 52 1025.8
20190319161051 61 105 5.0 13.0 0.00 0.00 0.00 55 1026.0
20190319160550 60 97 5.0 11.0 0.00 0.00 0.00 54 1026.0
20190319160210 60 161 2.0 10.0 0.00 0.00 0.00 55 1026.0
20190319155554 60 103 1.0 8.0 0.00 0.00 0.00 56 1026.0
20190319155046 59 78 3.0 8.0 0.00 0.00 0.00 57 1026.0
20190319154641 58 108 2.0 7.0 0.00 0.00 0.00 58 1026.0
20190319154044 57 157 1.0 6.0 0.00 0.00 0.00 59 1026.0
20190319153541 56 93 3.0 6.0 0.00 0.00 0.00 60 1026.0
20190319153111 56 135 1.0 3.0 0.00 0.00 0.00 60 1026.0
20190319152539 55 163 1.0 5.0 0.00 0.00 0.00 61 1025.9
20190319152038 55 101 1.0 6.0 0.00 0.00 0.00 61 1026.1
20190319151609 54 112 1.0 6.0 0.00 0.00 0.00 61 1026.0
20190319151035 54 142 0.0 4.0 0.00 0.00 0.00 61 1026.0
20190319150534 54 108 1.0 4.0 0.00 0.00 0.00 60 1025.9
20190319150150 54 115 1.0 4.0 0.00 0.00 0.00 61 1026.0
20190319145536 54 107 0.0 4.0 0.00 0.00 0.00 60 1025.9
20190319145031 53 96 1.0 5.0 0.00 0.00 0.00 61 1025.8
20190319144555 53 101 1.0 5.0 0.00 0.00 0.00 61 1025.7
20190319144028 52 103 1.0 5.0 0.00 0.00 0.00 62 1025.7
20190319143530 52 103 1.0 5.0 0.00 0.00 0.00 62 1025.6
20190319143158 52 101 1.0 5.0 0.00 0.00 0.00 62 1025.6
20190319142524 51 107 1.0 3.0 0.00 0.00 0.00 63 1025.7
20190319142026 51 107 0.0 2.0 0.00 0.00 0.00 63 1025.7
20190319141540 51 107 0.0 2.0 0.00 0.00 0.00 65 1025.6
20190319141026 50 107 0.0 3.0 0.00 0.00 0.00 66 1025.6
20190319140519 50 107 0.0 3.0 0.00 0.00 0.00 67 1025.6
20190319140100 50 107 0.0 3.0 0.00 0.00 0.00 68 1025.5
20190319135518 49 107 0.0 3.0 0.00 0.00 0.00 70 1025.4
20190319135025 48 107 1.0 2.0 0.00 0.00 0.00 71 1025.3
20190319134527 48 107 1.0 2.0 0.00 0.00 0.00 73 1025.3
20190319134023 47 108 0.0 1.0 0.00 0.00 0.00 72 1025.2
20190319133523 47 108 0.0 1.0 0.00 0.00 0.00 72 1025.2
20190319133029 47 108 0.0 1.0 0.00 0.00 0.00 73 1025.2
20190319132519 46 108 0.0 1.0 0.00 0.00 0.00 72 1025.2
20190319132017 46 108 0.0 1.0 0.00 0.00 0.00 72 1025.1
20190319131526 46 108 0.0 1.0 0.00 0.00 0.00 72 1025.1
20190319131012 46 108 0.0 0.0 0.00 0.00 0.00 72 1025.1
20190319130511 46 108 0.0 0.0 0.00 0.00 0.00 73 1025.1
20190319130045 45 108 0.0 0.0 0.00 0.00 0.00 72 1025.1
20190319125509 45 108 0.0 0.0 0.00 0.00 0.00 72 1025.1
20190319125014 45 108 0.0 0.0 0.00 0.00 0.00 72 1025.1
20190319124514 45 108 0.0 0.0 0.00 0.00 0.00 72 1025.1
20190319124011 45 108 0.0 0.0 0.00 0.00 0.00 72 1025.1
20190319123508 45 108 0.0 0.0 0.00 0.00 0.00 73 1025.0
20190319123019 45 108 0.0 0.0 0.00 0.00 0.00 73 1024.9
20190319122509 45 108 0.0 0.0 0.00 0.00 0.00 74 1024.9
20190319122008 45 108 0.0 0.0 0.00 0.00 0.00 74 1024.9
20190319121515 45 108 0.0 0.0 0.00 0.00 0.00 74 1025.0
20190319121009 45 108 0.0 0.0 0.00 0.00 0.00 74 1024.9
20190319120511 44 108 0.0 0.0 0.00 0.00 0.00 74 1024.9
20190319120028 44 108 0.0 0.0 0.00 0.00 0.00 74 1024.8
20190319115507 44 108 0.0 0.0 0.00 0.00 0.00 73 1024.9
20190319115010 44 108 0.0 0.0 0.00 0.00 0.00 73 1024.9
20190319114510 44 108 0.0 0.0 0.00 0.00 0.00 73 1024.9
20190319114008 45 108 0.0 0.0 0.00 0.00 0.00 73 1024.9
20190319113506 45 108 0.0 0.0 0.00 0.00 0.00 72 1024.9
20190319113008 45 108 0.0 0.0 0.00 0.00 0.00 72 1025.0
20190319112511 45 108 0.0 0.0 0.00 0.00 0.00 72 1025.0
20190319112006 45 108 0.0 0.0 0.00 0.00 0.00 71 1024.9
20190319111505 45 108 0.0 0.0 0.00 0.00 0.00 71 1024.9
20190319111005 45 108 0.0 0.0 0.00 0.00 0.00 71 1024.9
20190319110504 45 108 0.0 0.0 0.00 0.00 0.00 71 1024.9
20190319110007 45 108 0.0 0.0 0.00 0.00 0.00 71 1024.9
20190319105504 45 108 0.0 0.0 0.00 0.00 0.00 70 1024.8
20190319105004 45 108 0.0 0.0 0.00 0.00 0.00 70 1024.7
20190319104513 45 108 0.0 0.0 0.00 0.00 0.00 70 1024.6
20190319104004 45 108 0.0 0.0 0.00 0.00 0.00 71 1024.5
20190319103504 45 108 0.0 0.0 0.00 0.00 0.00 70 1024.5
20190319103013 45 108 0.0 0.0 0.00 0.00 0.00 71 1024.4
20190319102504 45 108 0.0 0.0 0.00 0.00 0.00 71 1024.4
20190319102004 44 108 0.0 0.0 0.00 0.00 0.00 71 1024.3
20190319101506 44 108 0.0 0.0 0.00 0.00 0.00 72 1024.3
20190319101001 44 108 0.0 0.0 0.00 0.00 0.00 72 1024.3
20190319100503 43 108 0.0 0.0 0.00 0.00 0.00 72 1024.3
20190319100208 43 108 0.0 0.0 0.00 0.00 0.00 72 1024.2
20190319095600 43 108 0.0 0.0 0.00 0.00 0.00 72 1024.2
20190319095104 43 108 0.0 0.0 0.00 0.00 0.00 72 1024.3
20190319094637 43 108 0.0 0.0 0.00 0.00 0.00 72 1024.2
20190319094059 43 108 0.0 0.0 0.00 0.00 0.00 72 1024.3
20190319093559 43 108 0.0 0.0 0.00 0.00 0.00 72 1024.4
20190319093234 43 108 0.0 0.0 0.00 0.00 0.00 72 1024.5
20190319092557 43 108 0.0 0.0 0.00 0.00 0.00 72 1024.5
20190319092057 43 107 0.0 0.0 0.00 0.00 0.00 71 1024.5
20190319091629 43 107 0.0 0.0 0.00 0.00 0.00 71 1024.6
20190319091056 43 108 0.0 0.0 0.00 0.00 0.00 70 1024.5
20190319090556 43 108 0.0 0.0 0.00 0.00 0.00 70 1024.6
20190319090139 43 108 0.0 0.0 0.00 0.00 0.00 70 1024.7
20190319085553 44 108 0.0 0.0 0.00 0.00 0.00 70 1024.7
20190319085052 44 108 0.0 0.0 0.00 0.00 0.00 69 1024.6
20190319084637 44 108 0.0 0.0 0.00 0.00 0.00 68 1024.6
20190319084058 44 108 0.0 0.0 0.00 0.00 0.00 68 1024.6
20190319083550 44 108 0.0 0.0 0.00 0.00 0.00 68 1024.7
20190319083143 44 108 0.0 0.0 0.00 0.00 0.00 68 1024.8
20190319082552 44 107 0.0 0.0 0.00 0.00 0.00 68 1024.8
20190319082050 44 108 0.0 0.0 0.00 0.00 0.00 68 1024.8
20190319081619 44 108 0.0 0.0 0.00 0.00 0.00 68 1024.9
20190319081048 44 107 0.0 0.0 0.00 0.00 0.00 68 1025.0
20190319080556 45 108 0.0 0.0 0.00 0.00 0.00 68 1024.9
20190319080158 45 108 0.0 0.0 0.00 0.00 0.00 67 1024.9
20190319075552 45 108 0.0 0.0 0.00 0.00 0.00 67 1024.9
20190319075049 45 107 0.0 0.0 0.00 0.00 0.00 67 1024.9
20190319074623 45 107 0.0 0.0 0.00 0.00 0.00 68 1024.9
20190319074054 44 108 0.0 0.0 0.00 0.00 0.00 68 1025.0
20190319073551 44 108 0.0 0.0 0.00 0.00 0.00 68 1024.9
20190319073116 44 108 0.0 0.0 0.00 0.00 0.00 68 1024.9
20190319072552 44 108 0.0 0.0 0.00 0.00 0.00 68 1024.8
20190319072046 45 108 0.0 0.0 0.00 0.00 0.00 67 1024.8
20190319071642 45 108 0.0 0.0 0.00 0.00 0.00 67 1024.8
20190319071045 45 108 0.0 0.0 0.00 0.00 0.00 66 1024.8
20190319070548 45 108 0.0 0.0 0.00 0.00 0.00 66 1024.8
20190319070216 45 108 0.0 0.0 0.00 0.00 0.00 66 1024.9
20190319065544 45 108 0.0 0.0 0.00 0.00 0.00 67 1024.9
20190319065044 45 108 0.0 0.0 0.00 0.00 0.00 67 1024.7
20190319064634 45 108 0.0 1.0 0.00 0.00 0.00 66 1024.7
20190319064046 45 108 0.0 1.0 0.00 0.00 0.00 65 1024.8
20190319063542 45 108 0.0 0.0 0.00 0.00 0.00 65 1024.9
20190319063128 45 108 0.0 0.0 0.00 0.00 0.00 65 1024.9
20190319062544 46 108 0.0 0.0 0.00 0.00 0.00 65 1024.9
20190319062039 46 108 0.0 0.0 0.00 0.00 0.00 64 1024.9
20190319061635 46 108 0.0 0.0 0.00 0.00 0.00 64 1024.9
20190319061037 46 108 0.0 0.0 0.00 0.00 0.00 64 1025.0
20190319060536 46 108 0.0 0.0 0.00 0.00 0.00 63 1025.0
20190319060101 47 108 0.0 0.0 0.00 0.00 0.00 63 1025.1
20190319055535 47 108 0.0 1.0 0.00 0.00 0.00 63 1025.1
20190319055032 47 108 0.0 1.0 0.00 0.00 0.00 62 1025.1
20190319054632 48 108 0.0 0.0 0.00 0.00 0.00 61 1025.2
20190319054033 48 108 0.0 0.0 0.00 0.00 0.00 61 1025.3
20190319053529 48 108 0.0 0.0 0.00 0.00 0.00 60 1025.3
20190319053039 49 108 0.0 0.0 0.00 0.00 0.00 60 1025.3
20190319052532 49 108 0.0 0.0 0.00 0.00 0.00 59 1025.5
20190319052031 50 108 0.0 0.0 0.00 0.00 0.00 59 1025.5
20190319051621 50 108 0.0 0.0 0.00 0.00 0.00 58 1025.6
20190319051022 50 108 0.0 1.0 0.00 0.00 0.00 59 1025.6
20190319050521 50 108 0.0 1.0 0.00 0.00 0.00 57 1025.5
20190319050042 50 108 0.0 1.0 0.00 0.00 0.00 57 1025.6
20190319045524 50 108 0.0 0.0 0.00 0.00 0.00 57 1025.7
20190319045019 50 108 0.0 0.0 0.00 0.00 0.00 57 1025.6
20190319044535 50 108 0.0 0.0 0.00 0.00 0.00 57 1025.6
20190319044021 50 108 0.0 0.0 0.00 0.00 0.00 58 1025.6
20190319043519 50 108 0.0 1.0 0.00 0.00 0.00 58 1025.6
20190319043028 50 108 0.0 3.0 0.00 0.00 0.00 58 1025.5
20190319042519 50 108 0.0 3.0 0.00 0.00 0.00 58 1025.5
20190319042018 50 107 1.0 3.0 0.00 0.00 0.00 58 1025.4
20190319041619 50 107 0.0 2.0 0.00 0.00 0.00 57 1025.4
20190319041026 50 107 1.0 2.0 0.00 0.00 0.00 57 1025.4
20190319040518 50 107 0.0 2.0 0.00 0.00 0.00 56 1025.4
20190319040025 50 107 1.0 3.0 0.00 0.00 0.00 57 1025.4
20190319035525 49 107 0.0 3.0 0.00 0.00 0.00 57 1025.4
20190319035018 49 107 0.0 2.0 0.00 0.00 0.00 57 1025.3
20190319034541 49 107 0.0 2.0 0.00 0.00 0.00 57 1025.4
20190319034016 49 107 0.0 2.0 0.00 0.00 0.00 57 1025.4
20190319033525 49 107 0.0 2.0 0.00 0.00 0.00 56 1025.3
20190319033031 49 107 0.0 2.0 0.00 0.00 0.00 56 1025.2
20190319032516 49 107 0.0 2.0 0.00 0.00 0.00 56 1025.2
20190319032019 49 107 0.0 2.0 0.00 0.00 0.00 57 1025.1
20190319031552 49 107 0.0 2.0 0.00 0.00 0.00 56 1025.1
20190319031016 49 107 0.0 2.0 0.00 0.00 0.00 56 1025.2
20190319030522 49 107 0.0 1.0 0.00 0.00 0.00 55 1025.1
20190319030035 49 107 0.0 1.0 0.00 0.00 0.00 55 1025.1
20190319025519 49 107 0.0 0.0 0.00 0.00 0.00 54 1025.1
20190319025022 49 107 0.0 0.0 0.00 0.00 0.00 54 1025.1
20190319024526 49 107 0.0 0.0 0.00 0.00 0.00 52 1025.0
20190319024015 49 107 0.0 0.0 0.00 0.00 0.00 53 1024.8
20190319023519 49 107 0.0 0.0 0.00 0.00 0.00 53 1024.8
20190319023037 49 107 0.0 0.0 0.00 0.00 0.00 52 1024.8
20190319022514 49 107 0.0 1.0 0.00 0.00 0.00 52 1024.7
20190319022021 50 107 0.0 1.0 0.00 0.00 0.00 50 1024.6
20190319021531 50 107 0.0 0.0 0.00 0.00 0.00 50 1024.6
20190319021014 50 107 0.0 0.0 0.00 0.00 0.00 49 1024.5
20190319020513 50 107 0.0 0.0 0.00 0.00 0.00 49 1024.6
20190319020014 51 107 0.0 1.0 0.00 0.00 0.00 47 1024.5
20190319015514 51 107 0.0 2.0 0.00 0.00 0.00 47 1024.4
20190319015013 52 107 0.0 2.0 0.00 0.00 0.00 46 1024.3
20190319014528 53 107 0.0 1.0 0.00 0.00 0.00 45 1024.2
20190319014013 53 107 0.0 2.0 0.00 0.00 0.00 44 1024.2
20190319013520 54 107 0.0 2.0 0.00 0.00 0.00 43 1024.2
20190319013023 54 107 0.0 2.0 0.00 0.00 0.00 42 1024.1
20190319012519 55 107 0.0 3.0 0.00 0.00 0.00 42 1024.1
20190319012012 55 108 1.0 3.0 0.00 0.00 0.00 40 1024.1
20190319011519 56 107 1.0 3.0 0.00 0.00 0.00 39 1024.1
20190319011011 56 108 1.0 3.0 0.00 0.00 0.00 37 1024.1
20190319010511 57 114 0.0 3.0 0.00 0.00 0.00 36 1024.1
20190319010013 57 113 0.0 3.0 0.00 0.00 0.00 35 1024.0
20190319005517 57 113 0.0 6.0 0.00 0.00 0.00 34 1024.1
20190319005011 58 114 0.0 7.0 0.00 0.00 0.00 33 1024.0
20190319004517 58 152 1.0 7.0 0.00 0.00 0.00 32 1024.0
20190319004014 58 103 1.0 6.0 0.00 0.00 0.00 32 1024.0
20190319003511 59 125 1.0 8.0 0.00 0.00 0.00 30 1023.8
20190319003033 59 138 2.0 8.0 0.00 0.00 0.00 30 1023.6
20190319002516 60 117 2.0 9.0 0.00 0.00 0.00 30 1023.6
20190319002010 60 158 2.0 9.0 0.00 0.00 0.00 29 1023.5
20190319001521 60 165 3.0 7.0 0.00 0.00 0.00 29 1023.6
20190319001009 60 151 2.0 9.0 0.00 0.00 0.00 30 1023.4
20190319000509 61 99 3.0 9.0 0.00 0.00 0.00 30 1023.4
20190319000051 61 145 3.0 7.0 0.00 0.00 0.00 30 1023.3
20190318235513 61 114 3.0 9.0 0.00 0.00 0.00 31 1023.3
20190318235012 61 141 2.0 9.0 0.00 0.00 0.00 31 1023.4
20190318234512 62 150 3.0 9.0 0.00 0.00 0.00 31 1023.4
20190318234008 62 167 2.0 6.0 0.00 0.00 0.00 31 1023.4
20190318233509 62 161 2.0 8.0 0.00 0.00 0.00 32 1023.3
20190318233011 62 108 3.0 8.0 0.00 0.00 0.00 32 1023.1
20190318232507 63 82 1.0 6.0 0.00 0.00 0.00 32 1023.1
20190318232008 63 154 2.0 7.0 0.00 0.00 0.00 31 1023.1
20190318231523 63 163 2.0 7.0 0.00 0.00 0.00 32 1023.0
20190318231012 63 96 1.0 7.0 0.00 0.00 0.00 32 1023.0
20190318230510 63 140 2.0 7.0 0.00 0.00 0.00 33 1023.0
20190318230013 63 128 2.0 8.0 0.00 0.00 0.00 32 1022.9
20190318225508 63 103 3.0 8.0 0.00 0.00 0.00 31 1022.8
20190318225008 63 122 2.0 7.0 0.00 0.00 0.00 32 1022.9
20190318224505 63 157 2.0 7.0 0.00 0.00 0.00 31 1022.8
20190318224004 63 99 2.0 12.0 0.00 0.00 0.00 31 1022.8
20190318223507 64 83 4.0 13.0 0.00 0.00 0.00 31 1022.7
20190318223006 64 110 3.0 8.0 0.00 0.00 0.00 29 1022.7
20190318222503 65 168 3.0 8.0 0.00 0.00 0.00 29 1022.8
20190318222005 65 202 2.0 10.0 0.00 0.00 0.00 28 1022.8
20190318221501 65 103 4.0 10.0 0.00 0.00 0.00 27 1022.9
20190318221100 66 121 2.0 10.0 0.00 0.00 0.00 29 1022.8
20190318220559 66 116 3.0 10.0 0.00 0.00 0.00 27 1022.9
20190318220142 66 96 2.0 10.0 0.00 0.00 0.00 27 1023.0
20190318215559 66 108 4.0 10.0 0.00 0.00 0.00 27 1023.1
20190318215102 67 73 2.0 11.0 0.00 0.00 0.00 27 1023.1
20190318214640 67 86 3.0 14.0 0.00 0.00 0.00 27 1023.0